#timestamp,LO_Frequency,Hit,StdDev 
1456632015.9,286047002.8,N
1456632035.7,286047006.2,N
1456632055.5,286047006.1,N
1456632075.4,286047008.4,N
1456632095.2,286047012.4,N
1456632115.0,286047012.3,N
1456632115.9,286047012.3,N
1456632135.8,286047011.0,N
1456632155.6,286047015.2,N
1456632175.4,286047018.7,N
1456632195.3,286047019.5,N
1456632215.1,286047018.9,N
1456632216.0,286047018.9,N
1456632235.8,286047020.7,N
1456632255.7,286047018.0,N
1456632275.5,286047014.2,N
1456632295.3,286047013.8,N
1456632315.1,286047011.2,N
1456632335.9,286047010.9,N
1456632355.7,286047014.8,N
1456632375.5,286047012.6,N
1456632395.4,286047014.7,N
1456632415.2,286047013.8,N
1456632435.0,286047011.4,N
1456632435.9,286047011.4,N
1456632455.8,286047011.5,N
1456632475.6,286047015.2,N
1456632495.4,286047013.4,N
1456632515.3,286047011.0,N
1456632535.1,286047008.0,N
1456632536.0,286047008.0,N
1456632555.8,286047008.8,N
1456632575.7,286047008.6,N
1456632595.5,286047009.9,N
1456632615.3,286047013.3,Y
1456632635.2,286046998.3,P
1456632655.9,286047002.2,N
1456632675.7,286047003.6,N
1456632695.5,286047004.3,N
1456632715.4,286047001.3,N
1456632735.2,286047004.8,N
1456632755.0,286047004.1,N
1456632755.9,286047004.1,N
1456632775.8,286047001.4,N
1456632795.6,286046999.8,N
1456632815.4,286047000.7,N
1456632835.3,286046999.5,N
1456632855.1,286046998.7,N
1456632856.0,286046998.7,N
1456632875.8,286046998.9,N
1456632895.7,286046999.3,N
1456632915.5,286046995.3,N
1456632935.3,286046996.2,N
1456632955.2,286046995.2,N
1456632975.9,286046995.9,N
1456632995.7,286046995.9,N
1456633015.5,286046993.6,N
1456633035.4,286046996.1,N
1456633055.2,286046994.6,N
1456633075.0,286046991.9,N
1456633075.9,286046991.9,N
1456633095.8,286046991.9,N
1456633115.6,286046996.3,N
1456633135.4,286046994.2,N
1456633155.3,286046993.9,N
1456633175.1,286046990.3,N
1456633195.8,286046992.1,N
1456633215.7,286046993.5,N
1456633235.5,286046993.5,N
1456633255.3,286046994.3,N
1456633275.2,286046994.0,N
1456633295.9,286046992.4,N
1456633315.7,286046992.3,N
1456633335.6,286046993.0,N
1456633355.4,286046993.6,N
1456633375.2,286046992.0,Y
1456633395.1,286046999.1,P
1456633396.0,286046999.1,N
1456633415.8,286046996.9,N
1456633435.6,286046999.6,N
1456633455.5,286046997.0,N
1456633475.3,286046996.6,N
1456633495.1,286046997.2,N
1456633515.8,286046997.1,N
1456633535.7,286046999.6,N
1456633555.5,286047000.0,N
1456633575.3,286047000.7,N
1456633595.2,286046999.7,N
1456633615.9,286046999.1,N
1456633635.7,286046998.6,N
1456633655.6,286047001.7,N
1456633675.4,286047000.7,N
1456633695.2,286046996.9,N
1456633715.1,286047000.2,N
1456633716.0,286047000.2,N
1456633735.8,286047005.9,Y
1456633755.6,286047003.2,P
1456633775.5,286047001.9,N
1456633795.3,286047001.3,N
1456633815.1,286047003.9,N
1456633835.9,286047001.8,N
1456633855.7,286047001.7,N
1456633875.5,286047002.5,N
1456633895.3,286047002.4,N
1456633915.2,286047000.4,N
1456633935.0,286046998.4,N
1456633935.9,286046998.4,N
1456633955.7,286047002.6,N
1456633975.6,286047000.2,N
1456633995.4,286046997.2,N
1456634015.2,286046997.5,N
1456634035.1,286046997.1,N
1456634036.0,286046997.1,N
1456634055.8,286046997.7,N
1456634075.6,286046993.3,N
1456634095.5,286046993.9,N
1456634115.3,286046991.7,N
1456634135.1,286046993.9,N
1456634155.9,286046993.8,N
1456634175.7,286046993.7,N
1456634195.5,286046993.8,N
1456634215.4,286046995.5,N
1456634235.2,286046994.7,N
1456634255.0,286046995.7,N
1456634255.9,286046995.7,N
1456634275.8,286046995.2,N
1456634295.6,286046993.7,N
1456634315.4,286046993.4,N
1456634335.2,286046996.3,N
1456634355.1,286046996.5,N
1456634356.0,286046996.5,N
1456634375.8,286046996.7,N
1456634395.6,286046998.7,N
1456634415.5,286046999.3,N
1456634435.3,286046996.9,N
1456634455.1,286046996.9,N
1456634475.9,286047000.8,N
1456634495.7,286047000.0,N
1456634515.5,286046998.9,N
1456634535.4,286047000.3,N
1456634555.2,286047001.2,N
1456634575.0,286047001.1,N
1456634575.9,286047001.1,N
1456634595.8,286047002.1,N
1456634615.6,286047002.0,N
1456634635.4,286047003.6,N
1456634655.3,286047002.3,N
1456634675.1,286047005.9,N
1456634676.0,286047005.9,N
1456634695.8,286047004.6,N
1456634715.6,286047008.5,N
1456634735.5,286047010.6,N
1456634755.3,286047007.0,N
1456634775.1,286047010.8,N
1456634795.9,286047011.5,N
1456634815.7,286047010.4,N
1456634835.5,286047009.4,N
1456634855.4,286047011.3,N
1456634875.2,286047011.9,N
1456634895.0,286047010.0,N
1456634895.9,286047010.0,N
1456634915.8,286047006.5,N
1456634935.6,286047009.8,N
1456634955.4,286047010.6,N
1456634975.3,286047008.0,N
1456634995.1,286047010.2,N
1456634996.0,286047010.2,N
1456635015.8,286047011.5,N
1456635035.7,286047017.0,Y
1456635055.5,286047009.8,P
1456635075.3,286047010.2,P
1456635095.2,286047008.4,P
1456635115.9,286047009.4,Y
1456635135.7,286047000.1,P
1456635155.6,286047000.3,N
1456635175.4,286047001.5,N
1456635195.2,286047002.7,N
1456635215.1,286047004.0,N
1456635216.0,286047004.0,N
1456635235.8,286047005.1,N
1456635255.6,286047003.2,N
1456635275.5,286047003.6,N
1456635295.3,286047002.2,N
1456635315.1,286047000.8,N
1456635335.8,286047000.5,N
1456635355.7,286046999.9,N
1456635375.5,286047001.9,N
1456635395.3,286047004.2,N
1456635415.2,286047003.3,N
1456635435.9,286047004.2,N
1456635455.7,286047001.6,N
1456635475.6,286047001.4,N
1456635495.4,286047009.1,Y
1456635515.2,286047006.6,P
1456635535.1,286047006.4,P
1456635536.0,286047006.4,P
1456635555.8,286047007.5,Y
1456635575.6,286047004.0,P
1456635595.5,286047004.0,P
